Location: Béaulencourt
(50.0796°N, 2.8795°E)
Time: 23:35:39
(UTC+00:00)

Cosmos 1666 Rocket - Pass Details

Date: 20 January 2026
Orbit: 598 x 625 km, 82.5° (Epoch: 17 February)

Event Time Altitude Azimuth Distance (km) Brightness Sun altitude
Rises 05:25:57 0° 180° (S) 2,862 7.1 -20.6°
Reaches altitude 10° 05:28:09 10° 177° (S) 1,967 6.2 -20.2°
Maximum altitude 05:32:27 64° 97° (E) 685 4.0 -19.5°
Drops below altitude 10° 05:36:51 10° 15° (NNE) 1,999 6.2 -18.8°
Sets 05:39:06 0° 13° (NNE) 2,914 7.1 -18.5°
